Regional Weather Roundup
Issued by NWS Cleveland, OH

Home | Current Version | Previous Version | Text Only | Print | Product List | Glossary Off
Versions: 1 2 3 4 5 6 7 8 9 10 11 12 13 14 15 16 17 18 19 20 21 22 23 24 25 26 27 28 29 30 31 32 33 34 35 36 37 38 39 40 41 42 43 44 45 46 47 48 49 50

000
ASUS41 KCLE 190310
RWRCLE
OHIO REGIONAL WEATHER ROUNDUP
NATIONAL WEATHER SERVICE CLEVELAND, OH
1000 PM EST WED JAN 18 2017

NOTE: "FAIR" INDICATES FEW OR NO CLOUDS BELOW 12,000 FEET WITH NO
SIGNIFICANT WEATHER AND/OR OBSTRUCTIONS TO VISIBILITY.

OHZ001>008-015>018-024>027-034-035-043-044-190400-
   NORTHWEST OHIO

CITY           SKY/WX    TMP DP  RH WIND       PRES   REMARKS
DEFIANCE       CLOUDY    34  33  96 W6        30.12R WCI  29
FINDLAY        CLOUDY    37  33  85 W20G26    30.13R
TOLEDO EXPRESS CLOUDY    35  35 100 SW10      30.11R WCI  27
TOLEDO EXEC    CLOUDY    36  34  92 W12       30.11S
LIMA           CLOUDY    36  36 100 SW10      30.11F FOG
$$

OHZ009>014-019>023-028>033-038-089-190400-
   NORTHEAST OHIO

CITY           SKY/WX    TMP DP  RH WIND       PRES   REMARKS
CLE-HOPKINS    DRIZZLE   39  35  86 W9        30.12R
CLE-LAKEFRONT  CLOUDY    37  35  92 W8        30.10R
CUY CO. ARPT   CLOUDY    39  37  93 W14       30.09R
LORAIN-ELYRIA  CLOUDY    37  33  85 W10       30.10R
ASHTABULA      CLOUDY    37  37 100 SW7       30.08R
AKRON-CANTON   CLOUDY    38  35  89 SW10      30.08S FOG
WOOSTER        CLOUDY    37  34  89 W8        30.10R
MANSFIELD      CLOUDY    35  35 100 SW12G18   30.10R FOG     WCI  27
YOUNGSTOWN     DRIZZLE   37  35  92 SW7       30.08R FOG
$$

OHZ042-051>053-060>062-070>072-077>081-190400-
  SOUTHWEST OHIO

CITY           SKY/WX    TMP DP  RH WIND       PRES   REMARKS
CINC-COVINGTON CLOUDY    39  36  89 SW3       30.13F
CINC-LUNKEN    CLOUDY    41  37  86 S5        30.16F
HAMILTON       CLOUDY    40  37  89 SW8       30.16F
DAYTON         CLOUDY    37  36  96 SW10      30.14S
WRIGHT-PAT AFB CLOUDY    39  38  99 SW7       30.14F
DAYTON GENERAL CLOUDY    39  37  92 W7        30.13F
WILMINGTON     CLOUDY    38  36  92 SW8       30.14S
$$

OHZ036-037-039>041-045>050-054>059-063>069-073>076-082>088-190400-
  CENTRAL AND SOUTHEAST OHIO

CITY           SKY/WX    TMP DP  RH WIND       PRES   REMARKS
COLUMBUS       CLOUDY    40  35  83 SW10      30.15R
OSU AIRPORT    CLOUDY    38  37  97 W9        30.14R
BOLTON FIELD   CLOUDY    38  37  94 W7        30.14F
RICKENBACK AFB   N/A     38  36  92 SW7       30.15S
NEWARK         CLOUDY    39  35  86 SW8       30.14R
MARION         CLOUDY    36  34  92 SW17G23   30.12R FOG
LANCASTER      CLOUDY    40  36  86 SW8       30.16R
ZANESVILLE     CLOUDY    39  35  86 SW8       30.15R
NEW PHILLY     NOT AVBL
$$




USA.gov is the U.S. government's official web portal to all federal, state and local government web resources and services.